Bowling Green, KY

2:08 PM CST on December 02, 2016 (GMT -0600)
Bowling Green-Warren County Regional

Weather History for KBWG - April, 2012

Change the Weather History Date:

Sunday, April 15, 2012

  Actual Average Record
Temperature  
Mean Temperature 72 °F 58 °F  
Max Temperature 81 °F 70 °F 88 °F (1936)
Min Temperature 63 °F 45 °F 25 °F (1950)
Degree Days  
Heating Degree Days 0 8  
Month to date heating degree days 99 155  
Since 1 July heating degree days 2881 3873  
Cooling Degree Days 7 1  
Month to date cooling degree days 39 14  
Year to date cooling degree days 97 19  
Growing Degree Days 22 (Base 50)    
Moisture  
Dew Point 56 °F    
Average Humidity 56    
Maximum Humidity 67    
Minimum Humidity 45    
Precipitation  
Precipitation 0.00 in 0.13 in 1.18 in (1994)
Month to date precipitation 0.25 2.02  
Year to date precipitation 10.77 14.00  
Snow  
Snow 0.00 in 0.00 in T in (2014)
Month to date snowfall 0.0 0.2  
Since 1 July snowfall 1.4 9.1  
Snow Depth 0.00 in    
Sea Level Pressure  
Sea Level Pressure 29.99 in    
Wind  
Wind Speed 15 mph (South)    
Max Wind Speed 24 mph    
Max Gust Speed 30 mph    
Visibility 10 miles    
Events      
T = Trace of Precipitation, MM = Missing Value Source: NWS Daily Summary

Daily Weather History Graph

Daily Weather History Graph

Search for Another Location

Airport or City:

Trip Planner

Search our weather history database for the weather conditions in past years. The results will help you decide how hot, cold, wet, or windy it might be!

Date:

Astronomy

Apr. 15, 2012 Rise Set
Actual Time 6:10 AM CDT 7:20 PM CDT
Civil Twilight 5:44 AM CDT 7:47 PM CDT
Nautical Twilight 5:12 AM CDT 8:19 PM CDT
Astronomical Twilight 4:38 AM CDT 8:53 PM CDT
Moon 3:00 AM CDT (4/15) 2:22 PM CDT (4/15)
Length of Visible Light 14h 03m
Length of Day
13h 10m
Waning Crescent, 27% of the Moon is Illuminated
Apr 15
Waning Crescent
Apr 21
New
Apr 29
First Quarter
May 5
Full
May 12
Last Quarter

Hourly Weather History & Observations

Time (CDT) Temp. Heat Index Dew Point Humidity Pressure Visibility Wind Dir Wind Speed Gust Speed Precip Events Conditions
12:53 AM 66.9 °F - 54.0 °F 63% 30.01 in 10.0 mi South 8.1 mph - N/A   Clear
1:53 AM 68.0 °F - 54.0 °F 61% 29.99 in 10.0 mi South 11.5 mph - N/A   Clear
2:53 AM 68.0 °F - 54.0 °F 61% 29.97 in 10.0 mi South 13.8 mph - N/A   Clear
3:53 AM 66.9 °F - 54.0 °F 63% 29.97 in 10.0 mi South 10.4 mph - N/A   Clear
4:53 AM 64.0 °F - 54.0 °F 70% 29.99 in 10.0 mi South 6.9 mph - N/A   Clear
5:53 AM 64.0 °F - 54.0 °F 70% 29.99 in 10.0 mi South 6.9 mph - N/A   Clear
6:53 AM 64.0 °F - 54.0 °F 70% 30.03 in 10.0 mi SSE 4.6 mph - N/A   Clear
7:53 AM 68.0 °F - 55.9 °F 65% 30.06 in 10.0 mi South 8.1 mph - N/A   Clear
8:53 AM 72.0 °F - 57.0 °F 59% 30.06 in 10.0 mi South 10.4 mph - N/A   Clear
9:53 AM 75.0 °F - 55.0 °F 50% 30.04 in 10.0 mi South 18.4 mph 26.5 mph N/A   Clear
10:53 AM 77.0 °F - 55.9 °F 48% 30.06 in 10.0 mi South 19.6 mph 27.6 mph N/A   Scattered Clouds
11:53 AM 79.0 °F - 55.9 °F 45% 30.06 in 10.0 mi SSW 18.4 mph 26.5 mph N/A   Mostly Cloudy
12:53 PM 79.0 °F - 55.0 °F 44% 30.06 in 10.0 mi SSW 18.4 mph 26.5 mph N/A   Mostly Cloudy
1:53 PM 78.1 °F - 55.9 °F 46% 30.04 in 10.0 mi South 18.4 mph 25.3 mph N/A   Mostly Cloudy
2:53 PM 80.1 °F 80.4 °F 57.0 °F 45% 30.02 in 10.0 mi SW 18.4 mph 25.3 mph N/A   Mostly Cloudy
3:53 PM 80.1 °F 80.4 °F 57.0 °F 45% 29.99 in 10.0 mi South 23.0 mph 26.5 mph N/A   Partly Cloudy
4:53 PM 80.1 °F 80.4 °F 57.0 °F 45% 29.97 in 10.0 mi South 20.7 mph 28.8 mph N/A   Clear
5:53 PM 79.0 °F - 57.0 °F 47% 29.95 in 10.0 mi South 20.7 mph 28.8 mph N/A   Clear
6:53 PM 78.1 °F - 57.0 °F 48% 29.94 in 10.0 mi South 15.0 mph 24.2 mph N/A   Clear
7:53 PM 75.0 °F - 57.9 °F 55% 29.94 in 10.0 mi SSE 9.2 mph - N/A   Clear
8:53 PM 73.0 °F - 57.9 °F 59% 29.94 in 10.0 mi SSE 10.4 mph - N/A   Clear
9:53 PM 73.9 °F - 57.9 °F 57% 29.94 in 10.0 mi South 12.7 mph 19.6 mph N/A   Clear
10:53 PM 73.9 °F - 57.9 °F 57% 29.91 in 10.0 mi SSE 18.4 mph - N/A   Clear
11:53 PM 73.9 °F - 57.9 °F 57% 29.91 in 10.0 mi South 20.7 mph 27.6 mph N/A   Clear